Preview of NWS' New Version of Forecast
This preview is not operational and should not be used for support decisions.

Regional Weather Roundup (RWR)

Issued by National Weather Service (NWS)

                            
000
ASUS45 KCYS 191910
RWRWY 

WYOMING REGIONAL WEATHER ROUNDUP
NATIONAL WEATHER SERVICE CHEYENNE WY
1200 PM MST TUE FEB 19 2019

NOTE:  "FAIR" INDICATES FEW OR NO CLOUDS BELOW 12,000 FEET
WITH NO SIGNIFICANT WEATHER AND/OR OBSTRUCTIONS TO VISIBILITY.

WYZ001-192000-
YELLOWSTONE NATIONAL PARK
  
CITY           SKY/WX    TMP DP  RH WIND       PRES   REMARKS
LK YELLOWSTONE   N/A      8  -2  63 VRB7      29.73F WCI  -3          
W YELLOWSTONE  NOT AVBL                                               

$$
WYZ002>013-054>058-071-098>099-192000-
NORTHERN WYOMING
  
CITY           SKY/WX    TMP DP  RH WIND       PRES   REMARKS
JACKSON        CLOUDY    21   5  50 SE3       29.82F                  
CODY           FAIR      21   7  54 NE8       29.82F WCI  11          
GREYBULL       PTSUNNY   16   7  67 E8        29.92F WCI   5          
WORLAND        FAIR      17   7  64 CALM      29.89F                  
SHERIDAN       FAIR      10  -1  61 CALM      29.90F                  
BUFFALO        FAIR      20   4  50 VRB5      29.80F WCI  13          
GILLETTE       PTSUNNY   13   6  74 S14       29.88F WCI  -2          
HULETT         CLOUDY    18   9  68 MISG      29.91                   
NEWCASTLE        N/A     16   7  67 SE12      29.94  WCI   3          

$$
WYZ014>020-022>026-101>103-192000-
CENTRAL WYOMING
  
CITY           SKY/WX    TMP DP  RH WIND       PRES   REMARKS
BIG PINEY      FAIR      -5 -11  75 CALM      29.81F                  
PINEDALE       FAIR      -8 -13  77 E3        29.80                   
DUBOIS         MOCLDY    14   0  52 W17       29.70  WCI  -3          
LANDER         FAIR      15   3  59 CALM      29.80F                  
RIVERTON       FAIR      17   5  59 VRB5      29.80F WCI  10          
CASPER         CLOUDY    16   8  71 SW16      29.82F WCI   1          
DOUGLAS        FAIR      17   9  70 VRB5      29.85F WCI  10          

$$
WYZ021-027>030-104>119-192000-
SOUTHERN WYOMING
  
CITY           SKY/WX    TMP DP  RH WIND       PRES   REMARKS
EVANSTON       FAIR       7   2  80 SW10      29.82S WCI  -8          
KEMMERER       FAIR      12   3  67 W5        29.80  WCI   4          
FORT BRIDGER   CLEAR     14   7  73 NE8       29.85S WCI   3          
ROCK SPRINGS   FAIR       7   0  73 W14       29.81F WCI -10          
DIXON          CLOUDY    12   0  60 NE3       29.87S                  
RAWLINS        PTSUNNY    9   2  73 W13       29.78F WCI  -7          
SARATOGA       MOCLDY    12   5  73 NW6       29.77F WCI   3          
LARAMIE        CLOUDY    13   5  70 MISG      29.69F                  
CHEYENNE       LGT SNOW  15   9  76 SW5       29.76F WCI   8          
TORRINGTON     CLOUDY    21  12  68 S14       29.89F WCI   8          
PINE BLUFFS    FLURRIES  18  10  73 SE10      29.84F WCI   6          

$$